Tracking 17138 objects as of 2-July-2015
HD Live streaming from Space Station

MOZ.5/SAFIR/RUBIN 5/SL-8

Track MOZ.5/SAFIR/RUBIN 5/SL-8 now!
10-day predictions
MOZ.5/SAFIR/RUBIN 5/SL-8 is classified as:


NORAD ID: 28898
Int'l Code: 2005-043G
Perigee: 687.5 km
Apogee: 713.7 km
Inclination: 97.8 °
Period: 98.6 minutes
Semi major axis: 7071 km
RCS: 6.834 m2 (large)
Launch date: October 27, 2005
Source: Germany (GER)
Your satellite tracking list
Your tracking list is empty





NASA's NSSDC Master Catalog

Two Line Element Set (TLE):
1 28898U 05043G   15182.49948273  .00000124  00000-0  34984-4 0  9999
2 28898 097.8472 356.3387 0018519 283.2376 076.6759 14.59924120515259

Source of the keplerian elements: AFSPC

N2YO: 236